2019-071R (45126 NORAD) Tracking and Keplerian Element Data

This shows tracking and keplerian element data for the satellite.

Feedback or suggestion? Click here.




ElementValue
Catalog45126
Name2019-071R
Epoch Orbit942
Epoch Day93.85645298
Epoch Year2020
RAAN8.4481
Inclination51.6437
Eccentricity0.001167
Argument of Perigee112.9964
Mean Anonmoly247.225
Mean Motion15.33625495
Decay Rate3.844E-05
L11 45126U 19071R 20093.85645298 .00003844 00000-0 12769-3 0 9994
L22 45126 51.6437 8.4481 0011670 112.9964 247.2250 15.33625495 9428

Live tracking and technical data element details for 2019-071R (NORAD 45126). 2019-071R can be tracked NOW for your location showing map with azimuth and elevation plus other details from your city location.

Track the satellite on the map from your city or location and see movement details for azimuth, elevation, latitude, longitude, range, height, and movement on the map or in text.







IsCatalogInMostPopularTable: catalog: 45126, numindb: 11
Update: records affected: 1



GetName: 45126 2019-071R

Hit Count: updated at: Sun, 05 Apr 2020 20:20:41 GMT